Benson, MN

10:19 AM CDT on April 23, 2017 (GMT -0500)
Benson Municipal

Weather History for KBBB - January, 2013

Change the Weather History Date:

Wednesday, January 30, 2013

  Actual Average Record
Temperature  
Mean Temperature 8 °F -  
Max Temperature 19 °F 23 °F 49 °F (1989)
Min Temperature -2 °F 2 °F -24 °F (1965)
Degree Days  
Heating Degree Days 56    
Moisture  
Dew Point 4 °F    
Average Humidity 81    
Maximum Humidity 86    
Minimum Humidity 78    
Precipitation  
Precipitation 0.00 in - - ()
Sea Level Pressure  
Sea Level Pressure 29.80 in    
Wind  
Wind Speed 19 mph (North)    
Max Wind Speed 25 mph    
Max Gust Speed 32 mph    
Visibility 8 miles    
Events Snow    
Averages and records for this station are not official NWS values.
T = Trace of Precipitation, MM = Missing Value Source: NWS Daily Summary

Daily Weather History Graph

Daily Weather History Graph

Search for Another Location

Airport or City:

Trip Planner

Search our weather history database for the weather conditions in past years. The results will help you decide how hot, cold, wet, or windy it might be!

Date:

Astronomy

Jan. 30, 2013 Rise Set
Actual Time 7:45 AM CST 5:27 PM CST
Civil Twilight 7:13 AM CST 5:58 PM CST
Nautical Twilight 6:38 AM CST 6:34 PM CST
Astronomical Twilight 6:03 AM CST 7:09 PM CST
Moon 9:41 PM CST (1/30) 9:00 AM CST (1/30)
Length of Visible Light 10h 45m
Length of Day
9h 42m
Waning Gibbous, 87% of the Moon is Illuminated
Jan 30
Waning Gibbous
Feb 3
Last Quarter
Feb 10
New
Feb 17
First Quarter
Feb 25
Full

Hourly Weather History & Observations

Time (CST) Temp. Windchill Dew Point Humidity Pressure Visibility Wind Dir Wind Speed Gust Speed Precip Events Conditions
12:13 AM 19.4 °F 5.5 °F 14.0 °F 80% 29.83 in 10.0 mi North 15.0 mph 21.9 mph N/A   Overcast
12:32 AM 17.6 °F 2.2 °F 12.2 °F 79% 29.82 in 10.0 mi North 17.3 mph 23.0 mph N/A   Overcast
12:53 AM 17.6 °F 2.2 °F 12.2 °F 79% 29.81 in 10.0 mi North 17.3 mph 24.2 mph N/A   Overcast
1:12 AM 17.6 °F 2.7 °F 12.2 °F 79% 29.81 in 10.0 mi North 16.1 mph 20.7 mph N/A   Overcast
1:33 AM 15.8 °F -0.2 °F 10.4 °F 79% 29.80 in 10.0 mi North 17.3 mph 20.7 mph N/A   Overcast
1:53 AM 15.8 °F 0.3 °F 10.4 °F 79% 29.79 in 10.0 mi North 16.1 mph 23.0 mph N/A   Overcast
2:12 AM 15.8 °F 0.3 °F 10.4 °F 79% 29.79 in 10.0 mi North 16.1 mph 24.2 mph N/A   Overcast
2:33 AM 15.8 °F 0.3 °F 10.4 °F 79% 29.79 in 10.0 mi North 16.1 mph 21.9 mph N/A   Overcast
2:53 AM 14.0 °F -3.0 °F 10.4 °F 86% 29.80 in 10.0 mi North 18.4 mph - N/A   Overcast
3:12 AM 14.0 °F -2.5 °F 8.6 °F 79% 29.80 in 10.0 mi North 17.3 mph 23.0 mph N/A   Overcast
3:33 AM 12.2 °F -3.7 °F 8.6 °F 85% 29.81 in 10.0 mi North 15.0 mph 19.6 mph N/A Snow Light Snow
3:53 AM 12.2 °F -4.3 °F 8.6 °F 85% 29.82 in 10.0 mi North 16.1 mph 24.2 mph N/A Snow Light Snow
4:12 AM 12.2 °F -4.3 °F 8.6 °F 85% 29.81 in 10.0 mi North 16.1 mph 25.3 mph N/A Snow Light Snow
4:33 AM 12.2 °F -5.8 °F 8.6 °F 85% 29.80 in 10.0 mi North 19.6 mph 25.3 mph N/A Snow Light Snow
4:53 AM 12.2 °F -4.8 °F 8.6 °F 85% 29.80 in 10.0 mi North 17.3 mph 25.3 mph N/A Snow Light Snow
5:12 AM 12.2 °F -5.8 °F 6.8 °F 79% 29.80 in 10.0 mi North 19.6 mph 26.5 mph N/A   Overcast
5:33 AM 12.2 °F -6.7 °F 6.8 °F 79% 29.79 in 10.0 mi North 21.9 mph 28.8 mph N/A   Overcast
5:52 AM 10.4 °F -8.2 °F 6.8 °F 85% 29.79 in 10.0 mi North 19.6 mph 26.5 mph N/A   Overcast
6:12 AM 10.4 °F -9.5 °F 6.8 °F 85% 29.79 in 10.0 mi North 23.0 mph 27.6 mph N/A   Overcast
6:33 AM 10.4 °F -9.1 °F 5.0 °F 79% 29.79 in 10.0 mi North 21.9 mph 27.6 mph N/A   Overcast
6:52 AM 10.4 °F -9.1 °F 5.0 °F 79% 29.79 in 10.0 mi North 21.9 mph 28.8 mph N/A Snow Light Snow
7:13 AM 10.4 °F -9.5 °F 5.0 °F 79% 29.79 in 10.0 mi North 23.0 mph 26.5 mph N/A Snow Light Snow
7:33 AM 10.4 °F -9.5 °F 5.0 °F 79% 29.79 in 10.0 mi North 23.0 mph 29.9 mph N/A Snow Light Snow
7:52 AM 8.6 °F -10.0 °F 3.2 °F 79% 29.79 in 10.0 mi North 18.4 mph 28.8 mph N/A Snow Light Snow
8:13 AM 8.6 °F -11.0 °F 5.0 °F 85% 29.79 in 10.0 mi North 20.7 mph 27.6 mph N/A Snow Light Snow
8:32 AM 8.6 °F -11.0 °F 3.2 °F 79% 29.79 in 10.0 mi North 20.7 mph 32.2 mph N/A Snow Light Snow
8:53 AM 8.6 °F -10.5 °F 3.2 °F 79% 29.79 in 10.0 mi North 19.6 mph 32.2 mph N/A Snow Light Snow
9:13 AM 8.6 °F -11.9 °F 3.2 °F 79% 29.79 in 10.0 mi North 23.0 mph 28.8 mph N/A   Overcast
9:33 AM 8.6 °F -10.0 °F 3.2 °F 79% 29.79 in 10.0 mi North 18.4 mph 29.9 mph N/A   Overcast
9:53 AM 8.6 °F -10.0 °F 3.2 °F 79% 29.80 in 7.0 mi North 18.4 mph 26.5 mph N/A   Overcast
10:12 AM 8.6 °F -7.7 °F 5.0 °F 85% 29.80 in 10.0 mi North 13.8 mph 21.9 mph N/A   Overcast
10:33 AM 10.4 °F -6.0 °F 5.0 °F 79% 29.80 in 10.0 mi North 15.0 mph 21.9 mph N/A   Overcast
10:53 AM 10.4 °F -7.7 °F 6.8 °F 85% 29.81 in 10.0 mi North 18.4 mph 23.0 mph N/A   Overcast
11:12 AM 10.4 °F -6.6 °F 5.0 °F 79% 29.81 in 10.0 mi North 16.1 mph 26.5 mph N/A   Overcast
11:33 AM 10.4 °F -8.6 °F 6.8 °F 85% 29.81 in 7.0 mi North 20.7 mph 25.3 mph N/A   Overcast
11:53 AM 10.4 °F -9.5 °F 6.8 °F 85% 29.80 in 4.0 mi North 23.0 mph 28.8 mph N/A   Overcast
12:12 PM 10.4 °F -9.1 °F 5.0 °F 79% 29.80 in 5.0 mi North 21.9 mph 28.8 mph N/A   Haze
12:33 PM 10.4 °F -9.1 °F 6.8 °F 85% 29.79 in 3.0 mi North 21.9 mph 32.2 mph N/A Snow Light Snow
12:52 PM 12.2 °F -6.7 °F 6.8 °F 79% 29.78 in 7.0 mi North 21.9 mph 32.2 mph N/A   Overcast
1:13 PM 12.2 °F -7.9 °F 6.8 °F 79% 29.78 in 10.0 mi North 25.3 mph 29.9 mph N/A   Overcast
1:33 PM 12.2 °F -5.8 °F 6.8 °F 79% 29.78 in 3.0 mi North 19.6 mph 25.3 mph N/A Snow Light Snow
1:52 PM 12.2 °F -7.1 °F 6.8 °F 79% 29.77 in 7.0 mi North 23.0 mph 29.9 mph N/A Snow Light Snow
2:13 PM 10.4 °F -9.1 °F 5.0 °F 79% 29.77 in 10.0 mi North 21.9 mph 28.8 mph N/A   Overcast
2:32 PM 10.4 °F -9.5 °F 6.8 °F 85% 29.77 in 3.0 mi North 23.0 mph 28.8 mph N/A Snow Light Snow
2:53 PM 10.4 °F -9.1 °F 6.8 °F 85% 29.78 in 3.0 mi North 21.9 mph - N/A Snow Light Snow
3:13 PM 10.4 °F -8.6 °F 5.0 °F 79% 29.78 in 3.0 mi North 20.7 mph 29.9 mph N/A Snow Light Snow
3:32 PM 8.6 °F -12.7 °F 5.0 °F 85% 29.78 in 5.0 mi North 25.3 mph 29.9 mph N/A Snow Light Snow
3:53 PM 8.6 °F -11.4 °F 3.2 °F 79% 29.78 in 5.0 mi North 21.9 mph 31.1 mph N/A Snow Light Snow
4:13 PM 8.6 °F -12.3 °F 3.2 °F 79% 29.79 in 3.0 mi North 24.2 mph - N/A Snow Light Snow
4:32 PM 8.6 °F -10.0 °F 3.2 °F 79% 29.79 in 7.0 mi North 18.4 mph 26.5 mph N/A Snow Light Snow
4:53 PM 6.8 °F -13.8 °F 3.2 °F 85% 29.79 in 10.0 mi North 21.9 mph 27.6 mph N/A Snow Light Snow
5:13 PM 6.8 °F -13.4 °F 1.4 °F 79% 29.79 in 5.0 mi North 20.7 mph 25.3 mph N/A   Haze
5:32 PM 6.8 °F -11.3 °F 1.4 °F 79% 29.79 in 10.0 mi North 16.1 mph 25.3 mph N/A   Overcast
5:53 PM 6.8 °F -12.4 °F 1.4 °F 79% 29.80 in 7.0 mi North 18.4 mph 23.0 mph N/A   Overcast
6:13 PM 5.0 °F -14.7 °F 1.4 °F 85% 29.81 in 10.0 mi North 18.4 mph - N/A   Overcast
6:32 PM 5.0 °F -15.2 °F 1.4 °F 85% 29.80 in 10.0 mi North 19.6 mph 24.2 mph N/A   Overcast
6:53 PM 5.0 °F -15.7 °F -0.4 °F 78% 29.80 in 10.0 mi North 20.7 mph - N/A   Overcast
7:13 PM 3.2 °F -18.1 °F -0.4 °F 85% 29.81 in 7.0 mi North 20.7 mph 26.5 mph N/A   Overcast
7:32 PM 3.2 °F -19.0 °F -0.4 °F 85% 29.81 in 10.0 mi North 23.0 mph - N/A   Overcast
7:53 PM 1.4 °F -21.9 °F -2.2 °F 85% 29.82 in 10.0 mi North 24.2 mph 27.6 mph N/A   Overcast
8:13 PM 1.4 °F -21.9 °F -4.0 °F 78% 29.81 in 7.0 mi North 24.2 mph 29.9 mph N/A   Overcast
8:32 PM -0.4 °F -23.3 °F -5.8 °F 78% 29.81 in 7.0 mi North 21.9 mph 27.6 mph N/A   Overcast
8:53 PM -0.4 °F -21.7 °F -5.8 °F 78% 29.82 in 10.0 mi North 18.4 mph 23.0 mph N/A   Overcast
9:13 PM -0.4 °F -21.7 °F -5.8 °F 78% 29.82 in 10.0 mi North 18.4 mph 25.3 mph N/A   Overcast
9:32 PM -0.4 °F -22.3 °F -5.8 °F 78% 29.82 in 7.0 mi North 19.6 mph 23.0 mph N/A   Overcast
9:53 PM -0.4 °F -21.7 °F -5.8 °F 78% 29.83 in 4.0 mi North 18.4 mph - N/A Snow Light Snow
10:13 PM -0.4 °F -20.5 °F -5.8 °F 78% 29.83 in 7.0 mi North 16.1 mph - N/A Snow Light Snow
10:33 PM -0.4 °F -21.2 °F -5.8 °F 78% 29.83 in 7.0 mi North 17.3 mph - N/A Snow Light Snow
10:53 PM -2.2 °F -24.7 °F -7.6 °F 78% 29.83 in 7.0 mi North 19.6 mph 26.5 mph N/A Snow Light Snow
11:12 PM -2.2 °F -25.7 °F -7.6 °F 78% 29.83 in 10.0 mi North 21.9 mph - N/A Snow Light Snow
11:33 PM -2.2 °F -24.1 °F -7.6 °F 78% 29.84 in 7.0 mi North 18.4 mph 26.5 mph N/A   Overcast
11:53 PM -2.2 °F -24.7 °F -7.6 °F 78% 29.85 in 10.0 mi North 19.6 mph 24.2 mph N/A   Overcast